Time,TemperatureF,DewpointF,PressureIn,WindDirection,WindDirectionDegrees,WindSpeedMPH,WindSpeedGustMPH,Humidity,HourlyPrecipIn,Conditions,Clouds,dailyrainin,SoftwareType,DateUTC
2013-07-14 00:08:00,68.8,67.0,30.23,NNW,327,0.0,0.0,95,0.00,,,0.00,weatherlink.com 1.10,2013-07-14 04:08:00,
2013-07-14 00:22:00,68.6,67.0,30.23,NNW,327,0.0,0.0,95,0.00,,,0.00,weatherlink.com 1.10,2013-07-14 04:22:00,
2013-07-14 00:37:00,68.3,67.0,30.23,NNW,327,0.0,0.0,95,0.00,,,0.00,weatherlink.com 1.10,2013-07-14 04:37:00,
2013-07-14 00:52:00,68.3,67.0,30.23,NNW,327,0.0,0.0,96,0.00,,,0.00,weatherlink.com 1.10,2013-07-14 04:52:00,
2013-07-14 01:07:00,68.0,67.0,30.23,NNW,327,0.0,0.0,95,0.00,,,0.00,weatherlink.com 1.10,2013-07-14 05:07:00,
2013-07-14 01:22:00,67.8,67.0,30.23,NNW,327,0.0,0.0,96,0.00,,,0.00,weatherlink.com 1.10,2013-07-14 05:22:00,
2013-07-14 01:37:00,67.6,67.0,30.23,NNW,327,0.0,0.0,96,0.00,,,0.00,weatherlink.com 1.10,2013-07-14 05:37:00,
2013-07-14 01:52:00,67.5,66.0,30.23,NNW,327,0.0,0.0,96,0.00,,,0.00,weatherlink.com 1.10,2013-07-14 05:52:00,
2013-07-14 02:07:00,67.6,67.0,30.23,NNW,327,0.0,0.0,96,0.00,,,0.00,weatherlink.com 1.10,2013-07-14 06:07:00,
2013-07-14 02:22:00,67.5,66.0,30.23,NNW,327,0.0,0.0,96,0.00,,,0.00,weatherlink.com 1.10,2013-07-14 06:22:00,
2013-07-14 02:37:00,67.3,66.0,30.23,NNW,327,0.0,0.0,96,0.00,,,0.00,weatherlink.com 1.10,2013-07-14 06:37:00,
2013-07-14 02:52:00,67.3,67.0,30.23,NNW,327,0.0,0.0,97,0.00,,,0.00,weatherlink.com 1.10,2013-07-14 06:52:00,
2013-07-14 03:07:00,67.1,66.0,30.23,NNW,327,0.0,0.0,97,0.00,,,0.00,weatherlink.com 1.10,2013-07-14 07:07:00,
2013-07-14 03:22:00,67.0,66.0,30.23,NNW,327,0.0,0.0,97,0.00,,,0.00,weatherlink.com 1.10,2013-07-14 07:22:00,
2013-07-14 03:37:00,66.9,66.0,30.23,NNW,327,0.0,0.0,97,0.00,,,0.00,weatherlink.com 1.10,2013-07-14 07:37:00,
2013-07-14 03:52:00,66.7,66.0,30.23,NNW,327,0.0,0.0,96,0.00,,,0.00,weatherlink.com 1.10,2013-07-14 07:52:00,
2013-07-14 04:07:00,66.3,65.0,30.23,NNW,327,0.0,0.0,96,0.00,,,0.00,weatherlink.com 1.10,2013-07-14 08:07:00,
2013-07-14 04:22:00,66.1,65.0,30.23,NNW,327,0.0,0.0,96,0.00,,,0.00,weatherlink.com 1.10,2013-07-14 08:22:00,
2013-07-14 04:37:00,66.2,65.0,30.24,NNW,327,0.0,0.0,97,0.00,,,0.00,weatherlink.com 1.10,2013-07-14 08:37:00,
2013-07-14 04:52:00,66.1,65.0,30.24,NNW,327,0.0,0.0,97,0.00,,,0.00,weatherlink.com 1.10,2013-07-14 08:52:00,
2013-07-14 05:08:00,65.9,65.0,30.24,NNW,327,0.0,0.0,97,0.00,,,0.00,weatherlink.com 1.10,2013-07-14 09:08:00,
2013-07-14 05:23:00,65.6,65.0,30.25,NNW,327,0.0,0.0,97,0.00,,,0.00,weatherlink.com 1.10,2013-07-14 09:23:00,
2013-07-14 05:38:00,65.5,65.0,30.25,NNW,327,0.0,0.0,97,0.00,,,0.00,weatherlink.com 1.10,2013-07-14 09:38:00,
2013-07-14 05:53:00,65.4,65.0,30.26,NNW,327,0.0,0.0,97,0.00,,,0.00,weatherlink.com 1.10,2013-07-14 09:53:00,
2013-07-14 06:08:00,65.4,65.0,30.26,NNW,327,0.0,0.0,97,0.00,,,0.00,weatherlink.com 1.10,2013-07-14 10:08:00,
2013-07-14 06:23:00,65.3,65.0,30.26,NNW,327,0.0,0.0,97,0.00,,,0.00,weatherlink.com 1.10,2013-07-14 10:23:00,
2013-07-14 06:38:00,65.5,65.0,30.27,NNW,327,0.0,0.0,97,0.00,,,0.00,weatherlink.com 1.10,2013-07-14 10:38:00,
2013-07-14 06:53:00,65.6,65.0,30.27,NNW,327,0.0,0.0,97,0.00,,,0.00,weatherlink.com 1.10,2013-07-14 10:53:00,
2013-07-14 07:08:00,65.8,65.0,30.27,NNW,327,0.0,0.0,97,0.00,,,0.00,weatherlink.com 1.10,2013-07-14 11:08:00,
2013-07-14 07:23:00,66.2,65.0,30.27,NNW,327,0.0,0.0,97,0.00,,,0.00,weatherlink.com 1.10,2013-07-14 11:23:00,
2013-07-14 07:38:00,66.3,66.0,30.28,NNW,327,0.0,0.0,97,0.00,,,0.00,weatherlink.com 1.10,2013-07-14 11:38:00,
2013-07-14 07:53:00,67.2,67.0,30.28,NNW,327,0.0,0.0,98,0.00,,,0.00,weatherlink.com 1.10,2013-07-14 11:53:00,
2013-07-14 08:08:00,68.0,68.0,30.28,NNW,327,0.0,0.0,98,0.00,,,0.00,weatherlink.com 1.10,2013-07-14 12:08:00,
2013-07-14 08:23:00,69.2,69.0,30.28,NW,322,0.0,1.0,98,0.00,,,0.00,weatherlink.com 1.10,2013-07-14 12:23:00,
2013-07-14 08:38:00,70.2,70.0,30.28,ENE,71,0.0,1.0,98,0.00,,,0.00,weatherlink.com 1.10,2013-07-14 12:38:00,
2013-07-14 08:53:00,71.1,70.0,30.28,ENE,71,0.0,0.0,97,0.00,,,0.00,weatherlink.com 1.10,2013-07-14 12:53:00,
2013-07-14 09:08:00,72.7,70.0,30.28,SSE,161,0.0,1.0,92,0.00,,,0.00,weatherlink.com 1.10,2013-07-14 13:08:00,
2013-07-14 09:23:00,74.4,71.0,30.27,SSE,161,0.0,0.0,89,0.00,,,0.00,weatherlink.com 1.10,2013-07-14 13:23:00,
2013-07-14 09:38:00,75.6,71.0,30.27,West,259,0.0,2.0,85,0.00,,,0.00,weatherlink.com 1.10,2013-07-14 13:38:00,
2013-07-14 09:53:00,77.2,71.0,30.27,NW,320,0.0,4.0,81,0.00,,,0.00,weatherlink.com 1.10,2013-07-14 13:53:00,
2013-07-14 10:08:00,78.3,71.0,30.27,NW,320,0.0,0.0,79,0.00,,,0.00,weatherlink.com 1.10,2013-07-14 14:08:00,
2013-07-14 10:23:00,80.2,72.0,30.27,NW,320,0.0,1.0,75,0.00,,,0.00,weatherlink.com 1.10,2013-07-14 14:23:00,
2013-07-14 10:38:00,80.8,71.0,30.27,NW,316,0.0,3.0,73,0.00,,,0.00,weatherlink.com 1.10,2013-07-14 14:38:00,
2013-07-14 10:53:00,81.2,71.0,30.27,NW,310,0.0,3.0,71,0.00,,,0.00,weatherlink.com 1.10,2013-07-14 14:53:00,
2013-07-14 11:08:00,81.1,72.0,30.27,NW,310,0.0,0.0,74,0.00,,,0.00,weatherlink.com 1.10,2013-07-14 15:08:00,
2013-07-14 11:23:00,82.4,71.0,30.27,NW,310,0.0,0.0,69,0.00,,,0.00,weatherlink.com 1.10,2013-07-14 15:23:00,
2013-07-14 11:38:00,83.3,73.0,30.27,NW,305,0.0,3.0,71,0.00,,,0.00,weatherlink.com 1.10,2013-07-14 15:38:00,
2013-07-14 11:53:00,83.4,72.0,30.26,NW,305,0.0,0.0,69,0.00,,,0.00,weatherlink.com 1.10,2013-07-14 15:53:00,
2013-07-14 12:08:00,82.5,72.0,30.26,NW,305,0.0,0.0,70,0.00,,,0.00,weatherlink.com 1.10,2013-07-14 16:08:00,
2013-07-14 12:24:00,84.3,71.0,30.26,NW,306,0.0,3.0,65,0.00,,,0.00,weatherlink.com 1.10,2013-07-14 16:24:00,
2013-07-14 12:39:00,85.0,73.0,30.25,SE,131,0.0,2.0,67,0.00,,,0.00,weatherlink.com 1.10,2013-07-14 16:39:00,
2013-07-14 12:54:00,85.6,74.0,30.25,SW,233,0.0,2.0,68,0.00,,,0.00,weatherlink.com 1.10,2013-07-14 16:54:00,
2013-07-14 13:09:00,85.7,73.0,30.25,West,277,0.0,1.0,66,0.00,,,0.00,weatherlink.com 1.10,2013-07-14 17:09:00,
2013-07-14 13:24:00,85.2,72.0,30.25,WNW,287,0.0,2.0,64,0.00,,,0.00,weatherlink.com 1.10,2013-07-14 17:24:00,
2013-07-14 13:39:00,85.6,72.0,30.25,WNW,295,0.0,3.0,64,0.00,,,0.00,weatherlink.com 1.10,2013-07-14 17:39:00,
2013-07-14 13:54:00,86.8,71.0,30.24,NW,323,0.0,3.0,60,0.00,,,0.00,weatherlink.com 1.10,2013-07-14 17:54:00,
2013-07-14 14:09:00,87.0,71.0,30.24,NE,49,0.0,3.0,60,0.00,,,0.00,weatherlink.com 1.10,2013-07-14 18:09:00,
2013-07-14 14:24:00,86.8,74.0,30.23,WNW,296,0.0,4.0,65,0.00,,,0.00,weatherlink.com 1.10,2013-07-14 18:24:00,
2013-07-14 14:39:00,86.9,72.0,30.23,SW,236,0.0,6.0,62,0.00,,,0.00,weatherlink.com 1.10,2013-07-14 18:39:00,
2013-07-14 14:54:00,87.6,73.0,30.23,NE,47,0.0,3.0,62,0.00,,,0.00,weatherlink.com 1.10,2013-07-14 18:54:00,
2013-07-14 15:09:00,89.3,75.0,30.23,SSW,196,0.0,2.0,62,0.00,,,0.00,weatherlink.com 1.10,2013-07-14 19:09:00,
2013-07-14 15:24:00,89.3,75.0,30.23,North,350,0.0,3.0,62,0.00,,,0.00,weatherlink.com 1.10,2013-07-14 19:24:00,
2013-07-14 15:39:00,88.4,72.0,30.22,NW,309,0.0,5.0,59,0.00,,,0.00,weatherlink.com 1.10,2013-07-14 19:39:00,
2013-07-14 15:54:00,88.8,74.0,30.22,WSW,242,0.0,0.0,62,0.00,,,0.00,weatherlink.com 1.10,2013-07-14 19:54:00,
2013-07-14 16:09:00,89.5,77.0,30.22,WSW,242,0.0,1.0,67,0.00,,,0.00,weatherlink.com 1.10,2013-07-14 20:09:00,
2013-07-14 19:17:00,86.8,76.0,30.21,NE,53,0.0,2.0,69,0.00,,,0.00,weatherlink.com 1.10,2013-07-14 23:17:00,
2013-07-14 19:24:00,86.4,76.0,30.21,NE,53,0.0,2.0,70,0.00,,,0.00,weatherlink.com 1.10,2013-07-14 23:24:00,
2013-07-14 19:39:00,85.8,76.0,30.21,NE,53,0.0,0.0,72,0.00,,,0.00,weatherlink.com 1.10,2013-07-14 23:39:00,
2013-07-14 19:54:00,85.1,76.0,30.21,East,79,0.0,1.0,73,0.00,,,0.00,weatherlink.com 1.10,2013-07-14 23:54:00,
2013-07-14 20:09:00,84.5,76.0,30.21,East,79,0.0,1.0,75,0.00,,,0.00,weatherlink.com 1.10,2013-07-15 00:09:00,
2013-07-14 20:24:00,83.5,75.0,30.21,East,79,0.0,0.0,76,0.00,,,0.00,weatherlink.com 1.10,2013-07-15 00:24:00,
2013-07-14 20:39:00,82.2,75.0,30.21,East,79,0.0,0.0,78,0.00,,,0.00,weatherlink.com 1.10,2013-07-15 00:39:00,
2013-07-14 20:54:00,81.0,75.0,30.21,East,79,0.0,0.0,81,0.00,,,0.00,weatherlink.com 1.10,2013-07-15 00:54:00,
2013-07-14 21:09:00,79.9,74.0,30.22,East,79,0.0,0.0,82,0.00,,,0.00,weatherlink.com 1.10,2013-07-15 01:09:00,
2013-07-14 21:24:00,78.8,74.0,30.22,East,79,0.0,0.0,84,0.00,,,0.00,weatherlink.com 1.10,2013-07-15 01:24:00,
2013-07-14 21:39:00,77.9,74.0,30.22,East,79,0.0,0.0,86,0.00,,,0.00,weatherlink.com 1.10,2013-07-15 01:39:00,
2013-07-14 21:54:00,77.0,73.0,30.23,East,80,0.0,0.0,87,0.00,,,0.00,weatherlink.com 1.10,2013-07-15 01:54:00,
2013-07-14 22:09:00,76.1,73.0,30.23,East,79,0.0,0.0,89,0.00,,,0.00,weatherlink.com 1.10,2013-07-15 02:09:00,
2013-07-14 22:24:00,75.3,73.0,30.23,East,79,0.0,0.0,91,0.00,,,0.00,weatherlink.com 1.10,2013-07-15 02:24:00,
2013-07-14 22:39:00,74.9,73.0,30.23,East,80,0.0,0.0,92,0.00,,,0.00,weatherlink.com 1.10,2013-07-15 02:39:00,
2013-07-14 22:54:00,74.5,72.0,30.23,East,80,0.0,0.0,93,0.00,,,0.00,weatherlink.com 1.10,2013-07-15 02:54:00,
2013-07-14 23:09:00,74.1,72.0,30.23,East,79,0.0,0.0,93,0.00,,,0.00,weatherlink.com 1.10,2013-07-15 03:09:00,
2013-07-14 23:24:00,73.7,72.0,30.23,East,80,0.0,0.0,94,0.00,,,0.00,weatherlink.com 1.10,2013-07-15 03:24:00,
2013-07-14 23:39:00,73.4,72.0,30.23,East,79,0.0,0.0,94,0.00,,,0.00,weatherlink.com 1.10,2013-07-15 03:39:00,
2013-07-14 23:54:00,73.1,72.0,30.23,East,80,0.0,0.0,95,0.00,,,0.00,weatherlink.com 1.10,2013-07-15 03:54:00,